Regional Weather Roundup
Issued by NWS

Home | Current Version | Previous Version | Graphics & Text | Print | Product List | Glossary On
Versions: 1 2 3 4 5 6 7 8 9 10 11 12 13 14 15 16 17 18 19 20 21 22 23 24 25 26 27 28 29 30 31 32 33 34 35 36 37 38 39 40 41 42 43 44 45 46 47 48 49 50
000
ASUS45 KBOU 241807
RWRCO

WEATHER ROUNDUP FOR COLORADO
NATIONAL WEATHER SERVICE DENVER/BOULDER CO
1100 AM MST WED DEC 24 2014

NOTE: "FAIR" INDICATES FEW OR NO CLOUDS BELOW 12000 FEET WITH NO
SIGNIFICANT WEATHER AND/OR OBSTRUCTIONS TO VISIBILITY.

COZ001>005-013-030-031-241900-
...NORTHWEST COLORADO...

CITY           SKY/WX    TMP DP  RH WIND       PRES   REMARKS
CRAIG          MOSUNNY   22   8  55 E10       30.05F WCI  11
HAYDEN         MOSUNNY   18   5  57 SE8       30.03F WCI   7
MEEKER         SUNNY     16   6  65 CALM      30.07F
MOUNT WERNER   NOT AVBL
STEAMBOAT SPGS MOSUNNY   15   7  72 CALM      30.03F
WALDEN         MOSUNNY   18   7  62 S9        29.97F WCI   6
$$

COZ006>008-011-241900-
...WEST CENTRAL VALLEYS...

CITY           SKY/WX    TMP DP  RH WIND       PRES   REMARKS
GRAND JUNCTION SUNNY     27   9  46 SE3       30.17F
MONTROSE       SUNNY     25   8  48 CALM      30.15F
EAGLE          NOT AVBL
RIFLE          SUNNY     21   8  57 CALM      30.15F
DELTA          SUNNY     28  10  46 E5        30.17F WCI  23
NUCLA          SUNNY     30  10  43 CALM      30.17F
$$

COZ017>023-064>068-241900-
...SOUTHWEST COLORADO...

CITY           SKY/WX    TMP DP  RH WIND       PRES   REMARKS
DURANGO        SUNNY     27   7  42 CALM      30.12F
CORTEZ         SUNNY     32   7  35 VRB3      30.14F
PAGOSA SPRINGS SUNNY     24  -2  32 CALM      30.10F
TELLURIDE      SUNNY     28  11  49 SE3       30.07F
WOLF CREEK PAS SUNNY     27   9  46 MISG      30.06F
$$

COZ009-010-012-014-032>034-037-058>063-241900-
...CENTRAL COLORADO...

CITY           SKY/WX    TMP DP  RH WIND       PRES   REMARKS
ASPEN          MOSUNNY   17   6  62 NW6       30.03F WCI   9
BUENA VISTA    SUNNY     26   3  37 CALM      29.96F
COPPER MTN     SUNNY     23  18  80 W12G22    29.99F WCI  12
BERTHOUD PASS  NOT AVBL
COTTONWOOD PAS SUNNY     32  10  40 NW5       29.95F WCI  27
GUNNISON       SUNNY     -6 -26  38 CALM      30.19F
KREMMLING      MOSUNNY   10   1  67 CALM      30.11F
LEADVILLE      SUNNY     26   8  46 N7        29.96F WCI  18
MONARCH PASS   SUNNY     12   7  79 SW30G36   30.08F WCI  -9
SALIDA         SUNNY     34   5  29 W5        30.04F WCI  30
SUNLIGHT         N/A    N/A N/A N/A MISG      30.02F
WILKERSON PASS MOSUNNY   27  14  59 NW14G29   29.94F WCI  15
$$

COZ069>075-241900-
...SAN LUIS VALLEY/SANGRE DE CRISTO MOUNTAINS...

CITY           SKY/WX    TMP DP  RH WIND       PRES   REMARKS
ALAMOSA        SUNNY     23   3  42 N6        30.08F WCI  16
LA VETA PASS   SUNNY     14   1  57 S9        29.96F WCI   2
SAGUACHE       SUNNY     16   3  57 S5        30.08F WCI   9
$$

COZ035-036-038>040-241900-
...NORTHERN COLORADO FRONT RANGE...

CITY           SKY/WX    TMP DP  RH WIND       PRES   REMARKS
DENVER INTL AP MOSUNNY   45  13  27 S9        29.78F
DMNS CITY PARK   N/A     43   9  25 SW8       29.76F
AURORA         MOSUNNY   44  12  27 S9        29.79F
FRONT RANGE AP NOT AVBL
ERIE MUNI ARPT   N/A     38  14  37 MISG      29.77F
BOULDER MUN AP MOSUNNY   34  14  44 CALM      29.78F
CENTENNIAL     MOSUNNY   41  20  43 SW3       29.79F
BROOMFIELD     MOSUNNY   41  14  33 VRB6      29.83S
FORT COLLINS   SUNNY     30  10  43 CALM      29.79F
LONGMONT       SUNNY     38   9  29 CALM      29.80F
$$

COZ041-046-047-076>085-087-088-241900-
...PIKES PEAK/PALMER DIVIDE AND SOUTHERN FOOTHILLS...

CITY           SKY/WX    TMP DP  RH WIND       PRES   REMARKS
COLO. SPRINGS  MOSUNNY   35   4  27 CALM      29.86F
A. F. ACADEMY  SUNNY     33   4  28 S8        29.85F WCI  27
ELLICOTT       NOT AVBL
FALCON         SUNNY     37   5  26 S5        29.85F
FORT CARSON    MOSUNNY   32   4  31 CALM      29.85F
LIMON          SUNNY     37  12  35 S9        29.84F
MONUMENT HILL  SUNNY     37  19  48 S6        29.81F
TRINIDAD         N/A     27  15  61 SW7       29.91F WCI  19
$$

COZ042>045-048>051-090-091-241900-
...NORTHEAST COLORADO...

CITY           SKY/WX    TMP DP  RH WIND       PRES   REMARKS
GREELEY ARPT   SUNNY     30  10  43 CALM      29.79F
AKRON          SUNNY     34  15  46 SW12      29.80F WCI  25
BURLINGTON     SUNNY     34  17  50 SW18      29.87F WCI  23
WRAY           SUNNY     36  19  50 SW10      29.84F
STERLING       SUNNY     27  18  69 SW10      29.82F WCI  17
HOLYOKE        SUNNY     37  19  48 W18       29.81F
FORT MORGAN    SUNNY     25  14  64 W6        29.81F WCI  18
$$

COZ086-089-092>099-241900-
...SOUTHEAST COLORADO...

CITY           SKY/WX    TMP DP  RH WIND       PRES   REMARKS
PUEBLO         SUNNY     29  11  47 SE6       29.89F WCI  23
LA JUNTA       SUNNY     36  12  37 SW8       29.92F
LAMAR          SUNNY     38  15  39 W9        29.92F
SPRINGFIELD      N/A     35  15  44 SW13      29.94F WCI  26
$$



USA.gov is the U.S. government's official web portal to all federal, state and local government web resources and services.